TimePDT,TemperatureF,Dew PointF,Humidity,Sea Level PressureIn,VisibilityMPH,Wind Direction,Wind SpeedMPH,Gust SpeedMPH,PrecipitationIn,Events,Conditions,WindDirDegrees,DateUTC
12:56 AM,48.0,19.9,33,29.89,10.0,North,5.8,-,N/A,,Clear,10,2013-04-05 07:56:00
1:56 AM,48.9,19.0,31,29.90,10.0,NNW,4.6,-,N/A,,Clear,330,2013-04-05 08:56:00
2:56 AM,48.9,18.0,29,29.90,10.0,NW,10.4,-,N/A,,Clear,320,2013-04-05 09:56:00
3:56 AM,45.0,18.0,34,29.91,10.0,West,10.4,-,N/A,,Clear,280,2013-04-05 10:56:00
4:56 AM,39.0,18.0,43,29.90,10.0,NW,5.8,-,N/A,,Clear,310,2013-04-05 11:56:00
5:56 AM,36.0,16.0,44,29.94,10.0,Calm,Calm,-,N/A,,Clear,0,2013-04-05 12:56:00
6:56 AM,39.9,16.0,38,29.95,10.0,North,3.5,-,N/A,,Clear,360,2013-04-05 13:56:00
7:56 AM,48.0,19.0,32,29.97,10.0,Calm,Calm,-,N/A,,Clear,0,2013-04-05 14:56:00
8:56 AM,57.9,14.0,18,29.96,10.0,NW,6.9,-,N/A,,Clear,320,2013-04-05 15:56:00
9:56 AM,60.1,12.9,16,29.96,10.0,WNW,4.6,-,N/A,,Clear,290,2013-04-05 16:56:00
10:56 AM,64.0,10.9,13,29.95,10.0,Calm,Calm,-,N/A,,Clear,0,2013-04-05 17:56:00
11:56 AM,70.0,3.9,7,29.92,10.0,North,4.6,-,N/A,,Clear,10,2013-04-05 18:56:00
12:56 PM,70.0,-0.9,6,29.90,10.0,Calm,Calm,-,N/A,,Clear,0,2013-04-05 19:56:00
1:56 PM,72.0,-0.0,6,29.86,10.0,SE,5.8,-,N/A,,Clear,140,2013-04-05 20:56:00
2:56 PM,73.0,-0.9,5,29.84,10.0,Calm,Calm,-,N/A,,Clear,0,2013-04-05 21:56:00
3:56 PM,73.9,-0.9,5,29.84,10.0,SE,5.8,-,N/A,,Clear,130,2013-04-05 22:56:00
4:56 PM,73.0,1.0,6,29.86,10.0,SSW,6.9,-,N/A,,Clear,210,2013-04-05 23:56:00
5:56 PM,73.0,3.0,6,29.85,10.0,SW,6.9,-,N/A,,Clear,220,2013-04-06 00:56:00
6:56 PM,69.1,15.1,13,29.86,10.0,North,8.1,-,N/A,,Clear,350,2013-04-06 01:56:00
7:56 PM,63.0,25.0,24,29.87,10.0,NNE,12.7,18.4,N/A,,Clear,20,2013-04-06 02:56:00
8:56 PM,57.9,25.0,28,29.86,10.0,North,10.4,-,N/A,,Clear,10,2013-04-06 03:56:00
9:56 PM,55.9,21.0,26,29.91,10.0,North,8.1,-,N/A,,Clear,350,2013-04-06 04:56:00
10:56 PM,57.9,19.0,22,29.92,10.0,North,12.7,21.9,N/A,,Clear,360,2013-04-06 05:56:00
11:56 PM,55.9,19.9,25,29.91,10.0,North,6.9,-,N/A,,Clear,350,2013-04-06 06:56:00